Hourly Data Report for October 27, 2013

All times are specified in Local Standard Time (LST). Add 1 hour to adjust for Daylight Saving Time where and when it is observed.

RANKIN INLET A
NUNAVUT

62°48'38.000" N
92°06'53.000" W
32.30 m
2303405
71083
YRT

Download Data

Hourly Data (October 2013)
Hourly Data Report for October 27, 2013
Temp Definition
°C
Dew Point Temp Definition
°C
Rel Hum Definition
%
Wind Dir Definition
10's deg

Wind Spd Definition
km/h
Visibility Definition
km
Stn Press Definition
kPa
Hmdx Definition


Wind Chill Definition


Weather Definition


TIME
00:00 Legend Double Dagger -11.5 -13.8 83 35 31 24.1 100.85   -22 Snow,Blowing Snow
01:00 Legend Double Dagger -12.5 -14.5 85 34 37 24.1 100.85   -24 Snow,Blowing Snow
02:00 Legend Double Dagger -10.6 -12.7 85 34 31 24.1 100.92   -20 Snow,Blowing Snow
03:00 Legend Double Dagger -10.9 -13.1 84 35 42 24.1 100.97   -22 Snow,Blowing Snow
04:00 Legend Double Dagger -12.0 -14.3 83 35 43 24.1 101.04   -24 Snow,Blowing Snow
05:00 Legend Double Dagger -12.2 -14.5 83 35 41 24.1 101.12   -24 Snow,Blowing Snow
06:00 Legend Double Dagger -12.2 -14.4 84 35 33 24.1 101.21   -23 Blowing Snow
07:00 Legend Double Dagger -12.3 -14.3 85 34 50 12.9 101.25   -25 Blowing Snow
08:00 Legend Double Dagger -13.2 -15.5 83 34 42 24.1 101.35   -25 Blowing Snow
09:00 Legend Double Dagger -12.9 -15.2 83 34 51 19.3 101.35   -26 Blowing Snow
10:00 Legend Double Dagger -13.2 -15.5 83 34 44 19.3 101.41   -26 Blowing Snow
11:00 Legend Double Dagger -12.4 -14.6 84 33 37 19.3 101.44   -24 Blowing Snow
12:00 Legend Double Dagger -11.3 -13.6 83 33 34 24.1 101.46   -22 Blowing Snow
13:00 Legend Double Dagger -10.7 -12.9 84 32 40 24.1 101.47   -22 Blowing Snow
14:00 Legend Double Dagger -11.2 -13.4 84 32 31 24.1 101.49   -21 Blowing Snow
15:00 Legend Double Dagger -11.1 -13.3 84 32 33 24.1 101.49   -21 Blowing Snow
16:00 Legend Double Dagger -11.4 -13.4 85 31 27 24.1 101.52   -21 Blowing Snow
17:00 Legend Double Dagger -12.0 -14.0 85 32 36 24.1 101.55   -23 Blowing Snow
18:00 Legend Double Dagger -12.6 -14.6 85 30 32 24.1 101.53   -23 Blowing Snow
19:00 Legend Double Dagger -12.7 -14.7 85 32 30 24.1 101.55   -23 Blowing Snow
20:00 Legend Double Dagger -12.9 -15.4 82 32 33 24.1 101.51   -24 Blowing Snow
21:00 Legend Double Dagger -13.6 -16.4 80 30 24 24.1 101.50   -23 Blowing Snow
22:00 Legend Double Dagger -13.3 -15.6 83 31 27 24.1 101.45   -23 Blowing Snow
23:00 Legend Double Dagger -13.2 -16.0 80 32 26 24.1 101.44   -23 Blowing Snow

Notes on Data Quality.

Legend

  • E = Estimated
  • M = Missing
  • NA = Not Available
  • ‡ = Partner data that is not subject to review by the National Climate Archives
Date modified: